Location: Bats
(43.6587°N, 0.4584°W)
Time: 06:16:44
(UTC+00:00)

Landsat 7 - Pass Details

Date: 12 January 2026
Orbit: 680 x 682 km, 97.9° (Epoch: 10 February)

Event Time Altitude Azimuth Distance (km) Brightness Sun altitude
Rises 17:29:53 0° 165° (SSE) 3,030 7.2 -7.8°
Reaches altitude 10° 17:32:07 10° 166° (SSE) 2,119 6.4 -8.2°
Maximum altitude 17:36:46 90° 123° (ESE) 689 3.8 -9.0°
Drops below altitude 10° 17:41:27 10° 347° (NNW) 2,134 6.2 -9.7°
Sets 17:43:42 0° 348° (NNW) 3,054 7.0 -10.1°
